Location: Newark
(46.7000°N, 60.6000°W)
Time: 03:01:10
(UTC+00:00)

Vanguard 3 - Pass Details

Date: 03 November 2020
Orbit: 508 x 3262 km, 33.3° (Epoch: 26 November)

Event Time Altitude Azimuth Distance (km) Brightness Sun altitude
Rises 14:42:15 0° 278° (W) 7,186 11.7 26.3°
Reaches altitude 10° 14:48:52 10° 265° (W) 6,201 11.6 26.7°
Maximum altitude 15:01:16 21° 226° (SW) 4,971 11.8 27.2°
Drops below altitude 10° 15:11:54 10° 184° (S) 5,203 12.8 27.5°
Sets 15:16:50 0° 170° (S) 5,777 12.8 27.6°
